TimeHST,TemperatureF,Dew PointF,Humidity,Sea Level PressureIn,VisibilityMPH,Wind Direction,Wind SpeedMPH,Gust SpeedMPH,PrecipitationIn,Events,Conditions,WindDirDegrees,DateUTC
12:54 AM,69.1,64.0,84,30.18,10.0,NE,10.4,-,N/A,,Clear,40,2013-02-26 10:54:00
1:54 AM,68.0,63.0,84,30.16,10.0,NE,11.5,-,N/A,,Partly Cloudy,50,2013-02-26 11:54:00
2:54 AM,69.1,62.1,78,30.14,10.0,NE,15.0,-,N/A,,Clear,50,2013-02-26 12:54:00
3:54 AM,69.1,61.0,75,30.14,10.0,NE,11.5,-,N/A,,Clear,50,2013-02-26 13:54:00
4:54 AM,68.0,61.0,78,30.13,10.0,NE,10.4,-,N/A,,Partly Cloudy,50,2013-02-26 14:54:00
5:54 AM,68.0,63.0,84,30.14,10.0,NE,9.2,-,0.00,Rain,Light Rain,40,2013-02-26 15:54:00
6:54 AM,66.9,63.0,87,30.15,10.0,NE,8.1,-,0.00,,Partly Cloudy,50,2013-02-26 16:54:00
7:54 AM,71.1,63.0,75,30.16,10.0,NE,6.9,-,N/A,,Scattered Clouds,50,2013-02-26 17:54:00
8:54 AM,72.0,64.9,78,30.18,10.0,NE,16.1,25.3,N/A,,Scattered Clouds,50,2013-02-26 18:54:00
9:54 AM,75.0,63.0,66,30.18,10.0,ENE,13.8,27.6,0.00,,Partly Cloudy,60,2013-02-26 19:54:00
10:54 AM,77.0,60.1,56,30.16,10.0,ENE,19.6,28.8,N/A,,Partly Cloudy,70,2013-02-26 20:54:00
11:54 AM,78.1,62.1,58,30.15,10.0,NE,19.6,29.9,N/A,,Partly Cloudy,50,2013-02-26 21:54:00
12:54 PM,79.0,62.1,56,30.13,10.0,ENE,19.6,27.6,N/A,,Scattered Clouds,70,2013-02-26 22:54:00
1:54 PM,79.0,62.1,56,30.11,10.0,ENE,21.9,29.9,N/A,,Scattered Clouds,70,2013-02-26 23:54:00
2:54 PM,79.0,62.1,56,30.10,10.0,East,18.4,29.9,N/A,,Scattered Clouds,80,2013-02-27 00:54:00
4:54 PM,75.0,64.0,69,30.12,10.0,NE,20.7,29.9,N/A,,Scattered Clouds,50,2013-02-27 02:54:00
5:54 PM,72.0,63.0,73,30.14,10.0,NE,16.1,-,0.00,,Scattered Clouds,50,2013-02-27 03:54:00
6:54 PM,68.0,64.9,90,30.15,10.0,ENE,16.1,25.3,0.00,,Mostly Cloudy,60,2013-02-27 04:54:00
7:54 PM,68.0,64.9,90,30.16,10.0,ENE,10.4,-,N/A,,Partly Cloudy,60,2013-02-27 05:54:00
8:54 PM,69.1,64.0,84,30.17,10.0,ENE,15.0,20.7,0.00,,Mostly Cloudy,70,2013-02-27 06:54:00
10:54 PM,69.1,64.0,84,30.20,10.0,NE,11.5,-,0.01,,Scattered Clouds,50,2013-02-27 08:54:00
11:54 PM,68.0,62.1,81,30.20,10.0,NE,11.5,-,0.00,,Scattered Clouds,50,2013-02-27 09:54:00